TimeEST,TemperatureF,Dew PointF,Humidity,Sea Level PressureIn,VisibilityMPH,Wind Direction,Wind SpeedMPH,Gust SpeedMPH,PrecipitationIn,Events,Conditions,WindDirDegrees,DateUTC
12:51 AM,36.0,19.0,50,30.61,10.0,SW,5.8,-,N/A,,Clear,230,2011-12-12 05:51:00
1:51 AM,35.1,16.0,46,30.61,10.0,SW,5.8,-,N/A,,Clear,220,2011-12-12 06:51:00
2:51 AM,35.1,18.0,50,30.62,10.0,SW,5.8,-,N/A,,Clear,220,2011-12-12 07:51:00
3:51 AM,35.1,17.1,48,30.60,10.0,Calm,Calm,-,N/A,,Clear,0,2011-12-12 08:51:00
4:51 AM,33.8,17.6,52,30.58,10.0,Calm,Calm,-,N/A,,Clear,0,2011-12-12 09:51:00
5:51 AM,34.0,18.0,52,30.59,10.0,SSW,5.8,-,N/A,,Clear,200,2011-12-12 10:51:00
6:51 AM,34.0,18.0,52,30.59,10.0,SSW,3.5,-,N/A,,Partly Cloudy,200,2011-12-12 11:51:00
7:51 AM,34.0,18.0,52,30.59,10.0,SSW,3.5,-,N/A,,Scattered Clouds,210,2011-12-12 12:51:00
8:51 AM,37.0,18.0,46,30.59,10.0,SW,3.5,-,N/A,,Mostly Cloudy,230,2011-12-12 13:51:00
9:51 AM,39.0,16.0,39,30.58,10.0,NW,3.5,-,N/A,,Mostly Cloudy,310,2011-12-12 14:51:00
10:51 AM,39.2,15.8,39,30.57,10.0,SSW,5.8,-,N/A,,Mostly Cloudy,200,2011-12-12 15:51:00
11:51 AM,41.0,15.1,35,30.54,10.0,SSW,6.9,-,N/A,,Overcast,210,2011-12-12 16:51:00
12:51 PM,42.1,12.9,31,30.54,10.0,SSW,4.6,-,N/A,,Overcast,210,2011-12-12 17:51:00
1:51 PM,42.1,12.9,31,30.52,10.0,SSW,9.2,-,N/A,,Overcast,210,2011-12-12 18:51:00
2:51 PM,43.0,12.9,30,30.51,10.0,SW,6.9,-,N/A,,Overcast,220,2011-12-12 19:51:00
3:51 PM,43.0,10.0,26,30.51,10.0,SW,6.9,-,N/A,,Overcast,220,2011-12-12 20:51:00
4:51 PM,42.1,12.0,29,30.49,10.0,SSW,4.6,-,N/A,,Overcast,210,2011-12-12 21:51:00
5:51 PM,41.0,18.0,40,30.47,10.0,Calm,Calm,-,N/A,,Overcast,0,2011-12-12 22:51:00
6:51 PM,41.0,18.0,40,30.46,10.0,Calm,Calm,-,N/A,,Overcast,0,2011-12-12 23:51:00
7:51 PM,39.9,18.0,41,30.46,10.0,WNW,5.8,-,N/A,,Mostly Cloudy,300,2011-12-13 00:51:00
8:51 PM,39.9,16.0,38,30.45,10.0,West,3.5,-,N/A,,Mostly Cloudy,270,2011-12-13 01:51:00
9:51 PM,39.0,17.1,41,30.45,10.0,SSW,4.6,-,N/A,,Mostly Cloudy,210,2011-12-13 02:51:00
10:51 PM,39.0,17.1,41,30.44,10.0,SSW,6.9,-,N/A,,Mostly Cloudy,210,2011-12-13 03:51:00
11:51 PM,39.0,17.1,41,30.44,10.0,West,4.6,-,N/A,,Mostly Cloudy,260,2011-12-13 04:51:00